Location: Azul
(36.7830°S, 59.8500°W)
Time: 17:35:22
(UTC-03:00)

VELOX 1 - Pass Details

Date: 23 October 2021
Orbit: 627 x 641 km, 98.3° (Epoch: 06 December)

Event Time Altitude Azimuth Distance (km) Brightness Sun altitude
Rises 04:38:53 0° 152° (SSE) 2,959 ? -16.7°
Reaches altitude 10° 04:41:30 10° 137° (SE) 2,039 ? -16.2°
Maximum altitude 04:45:02 23° 84° (E) 1,354 ? -15.6°
Drops below altitude 10° 04:48:31 10° 31° (NNE) 2,010 ? -15.0°
Sets 04:51:04 0° 17° (NNE) 2,906 ? -14.5°
